Location: Ottawa
(45.4170°N, 75.7000°W)
Time: 23:12:51
(UTC-05:00)

ISS - Visible Passes

Search period start: 18 January 2022 00:00
Search period end: 28 January 2022 00:00
Orbit: 413 x 423 km, 51.6° (Epoch: 18 January)

Date Brightness Start Highest point End Pass type
(mag) Time Alt. Az. Time Alt. Az. Time Alt. Az.
18 Jan -2.9 18:26:04 10° SSW 18:29:05 32° SE 18:29:17 32° SE visible
19 Jan -2.1 17:38:43 10° S 17:41:17 21° SE 17:43:31 12° E visible
19 Jan -2.0 19:14:28 10° WSW 19:16:28 33° W 19:16:28 33° W visible
20 Jan -3.9 18:26:28 10° WSW 18:29:48 82° SSE 18:30:38 48° ENE visible
21 Jan -3.4 17:38:38 10° SW 17:41:52 51° SE 17:44:44 13° ENE visible
21 Jan -1.9 19:15:36 10° W 19:17:40 29° WNW 19:17:40 29° WNW visible
22 Jan -3.2 18:27:25 10° W 18:30:39 48° NNW 18:31:42 34° NNE visible
23 Jan -3.6 17:39:17 10° WSW 17:42:37 69° NNW 17:45:42 12° ENE visible
23 Jan -1.6 19:16:49 10° WNW 19:18:38 23° NW 19:18:38 23° NW visible
24 Jan -2.5 18:28:34 10° WNW 18:31:37 31° NNW 18:32:36 26° NNE visible
25 Jan -2.8 17:40:19 10° W 17:43:28 38° NNW 17:46:33 10° NE visible
25 Jan -1.5 19:17:53 10° WNW 19:19:28 21° NW 19:19:28 21° NW visible
26 Jan -2.4 18:29:42 10° WNW 18:32:36 27° N 18:33:24 24° NNE visible
27 Jan -2.4 17:41:27 10° WNW 17:44:24 28° N 17:47:21 10° NE visible
27 Jan -1.7 19:18:41 10° NW 19:20:16 22° NW 19:20:16 22° NW visible
